クリステンセン彗星

164P/Christensen (2018)

English version
Home page
Updated on October 8, 2017

---------------------------------------------------------------------

・ プロフィール

・ 軌道要素

Epoch 2018 June 11.0 TT = JDT 2458280.5
T 2018 May 31.40966 TT                                  Kobayashi
q   1.6852575            (2000.0)            P               Q
n   0.14067452     Peri.  325.93120     +0.56205509     -0.77835232
a   3.6615004      Node    88.30590     +0.80745565     +0.44308810
e   0.5397358      Incl.   16.25276     +0.17919109     +0.44479276
P   7.01
From 888 observations 1998 Jan. 24-2012 May 18, mean residual 0".6.
     Nongravitational parameters A1 = -0.17, A2 = +0.0103.

・ 光度変化

        m1 = 13.0 + 5 logΔ + 10.0 log r(t - 150)

---------------------------------------------------------------------

軌道要素はM.P.E.C. 2015-M77に掲載されたものです。
光度グラフはComet for Windowsで作成したものです。

---------------------------------------------------------------------

Copyright(C) Seiichi Yoshida (comet@aerith.net). All rights reserved.